Location: Air Evac Lifeteam
(39.6847°N, 89.5931°W)
Time: 00:06:10
(UTC+00:00)

Daily predictions for brighter satellites

Satellite Brightness Start Highest point End
(mag) Time Altitude Azimuth Time Altitude Azimuth Time Altitude Azimuth
Iridium 4 Rocket 3.5 00:20:06 10° SSE 00:24:46 56° E 00:29:55 10° N
ARGOS 4.2 00:21:00 10° ESE 00:25:20 26° ENE 00:29:41 10° NNE
Cosmos 1437 3.7 00:25:25 10° NNE 00:27:56 24° ENE 00:30:26 10° SE
SJ 16-02 2.5 00:25:46 10° SW 00:30:01 50° WNW 00:34:17 10° N
NOSS 8 (H) 4.3 00:27:44 10° SW 00:31:10 83° NW 00:34:11 10° NNE
CZ-2C R/B 4.0 00:28:00 10° NE 00:31:42 18° E 00:35:26 10° SE
Milstar 3 Cent rocket 4.2 00:29:18 10° SSW 00:32:58 14° SSE 00:35:55 10° SE
Cosmos 1939 Rocket 3.6 00:29:42 10° S 00:33:46 61° W 00:37:53 10° NNW
SL-16 R/B 3.8 00:28:34 10° NW 00:33:49 39° WSW 00:39:00 10° S
Cosmos 1378 Rocket 3.9 00:29:39 10° NNW 00:33:57 70° W 00:38:12 10° S
Lacrosse 5 rocket 4.0 00:31:12 10° WNW 00:34:07 18° NNW 00:37:10 10° NNE
Helios 1A Rocket 3.7 00:30:48 10° S 00:34:48 57° W 00:38:52 10° NNW
NOSS 2-2 (E) 3.1 00:32:33 10° SSW 00:35:57 52° ESE 00:39:32 10° NE
Okean 2 Rocket 4.3 00:33:26 10° SE 00:36:48 21° E 00:40:11 10° NE
Cosmos 1900 4.5 00:33:19 10° NNW 00:38:32 89° SW 00:43:39 10° SSE
CZ-2D R/B 3.7 00:36:27 10° S 00:40:17 67° WSW 00:44:11 10° NNW
Cosmos 2263 Rocket 2.2 00:34:51 10° SSW 00:40:25 88° WNW 00:46:02 10° NNE
Okean-O 2.9 00:36:23 10° S 00:40:48 72° WSW 00:45:14 10° NNW
DELTA 2 R/B (1) 3.6 00:36:08 10° W 00:41:41 78° SSW 00:46:52 12° ESE
HJ-1C 3.9 00:39:24 10° SE 00:42:28 37° ENE 00:45:33 10° N
Cosmos 990 Rocket 4.3 00:37:36 10° SSW 00:42:42 71° WNW 00:47:51 10° NNE
Meteor 2-9 Rocket 4.3 00:38:07 10° S 00:43:57 76° E 00:49:46 10° NNE
NOSS 2-2 (D) 3.2 00:41:03 10° SSW 00:44:28 49° ESE 00:47:59 10° NE
CZ-2C R/B 3.1 00:40:50 10° SSE 00:45:56 67° ENE 00:51:22 10° N
Cosmos 1844 Rocket 3.8 00:43:56 10° SSE 00:47:55 20° E 00:51:55 10° NE
Cosmos 1300 Rocket 4.5 00:45:07 10° SSE 00:48:48 27° E 00:52:31 10° NNE
USA 116 3.6 00:48:35 10° N 00:52:04 82° WNW 00:55:58 10° SSW
CENTAUR R/B 4.4 00:48:10 10° NNW 00:54:16 23° NE 01:00:06 12° E
Ariane Rocket 4.0 00:50:37 11° ESE 00:54:30 27° ENE 00:58:43 10° N
YAOGAN 1 2.9 00:50:26 10° S 00:54:44 71° WSW 00:59:04 10° NNW
USA 186 3.2 00:54:52 18° E 00:55:36 19° ENE 00:57:57 10° NNE
GP-B 4.4 00:52:11 10° N 00:56:25 45° W 01:00:38 10° SSW
Cosmos 1943 3.2 00:54:01 10° NNW 00:59:41 75° ENE 01:05:20 10° SSE
Okean 2 3.7 00:56:44 10° NNW 01:00:54 73° W 01:05:01 10° S
Cosmos 1464 Rocket 4.1 00:56:27 10° SSE 01:02:18 49° E 01:08:12 10° NNE
Meteor 1-12 Rocket 4.5 00:58:35 10° SSE 01:04:17 50° E 01:09:55 10° NNE
CSL-04 Debris 4.3 01:02:54 10° S 01:08:17 79° WSW 01:13:42 10° NNW
Cosmos 1975 4.3 01:07:01 10° SSW 01:10:52 41° W 01:14:46 10° N
CZ-4 R/B 3.2 01:08:38 10° SSW 01:12:29 35° W 01:16:22 10° NNW
Meteor 1-21 4.3 01:07:07 10° N 01:12:44 82° W 01:18:18 10° S
OBJECT-B 3.2 01:14:10 11° NE 01:14:10 11° NE 01:14:21 10° NE
CSL-04 Rocket 4.0 01:12:17 10° S 01:17:39 69° WSW 01:23:07 10° NNW
Cosmos 2151 Rocket 3.9 01:13:46 10° SSE 01:17:55 41° E 01:22:07 10° NNE
Cosmos 1867 3.8 01:13:01 10° NNW 01:18:22 52° NE 01:21:22 25° ESE
Cosmos 1603 4.1 01:13:47 10° NNW 01:19:23 65° WSW 01:24:55 10° S
CZ-2C R/B 1.6 01:18:05 10° WSW 01:21:22 36° S 01:22:04 32° SSE
Cosmos 1025 Rocket 3.3 01:17:42 10° N 01:21:55 44° ENE 01:23:50 27° SE
USA 102 4.5 01:22:51 24° SSE 01:26:07 86° WSW 01:31:22 10° NNW
Cosmos 372 Rocket 4.0 01:23:15 10° SSW 01:28:30 89° W 01:33:46 10° NNE
NOSS 2-2 (C) 4.1 01:25:38 10° SW 01:29:02 46° NW 01:32:39 10° NNE
Cosmos 1891 Rocket 4.4 01:23:45 10° S 01:29:56 89° E 01:36:03 10° N
Cosmos 1674 4.3 01:27:07 10° NNE 01:29:01 20° NE 01:29:01 20° NE
NOSS 3-2 (A) 4.5 01:24:51 10° NNW 01:32:04 45° NE 01:36:10 27° ESE
DMSP B5D2-2 4.1 01:27:13 10° NNE 01:32:25 53° E 01:37:34 10° S
Cosmos 2150 Rocket 4.0 01:27:49 10° S 01:33:03 62° ESE 01:38:25 10° NNE
BREEZE-M DEB (TANK) 3.3 01:35:24 10° NW 01:38:44 62° NE 01:42:24 30° ESE
MOS 1 Rocket 4.4 01:38:43 10° N 01:42:56 43° WNW 01:46:59 10° SW
Cosmos 1125 Rocket 3.6 01:38:08 10° S 01:43:13 49° ESE 01:48:21 10° NNE
Cosmos 1707 3.0 01:40:26 10° NNW 01:44:14 64° W 01:46:32 22° S
SJ-6B 2.5 01:44:19 67° E 01:44:29 68° ENE 01:48:11 10° N
Abrixas rocket 4.5 01:45:47 10° NW 01:47:27 14° N 01:47:39 14° N
Resurs 01 Rocket 3.2 01:49:34 22° NE 01:49:34 22° NE 01:51:58 10° NNE
USA 234 3.1 01:45:26 10° NE 01:52:00 77° SE 01:58:33 10° SW
ISS -2.2 01:49:11 10° W 01:52:17 33° NNW 01:53:13 28° N
Cosmos 2034 Rocket 4.1 01:52:59 10° S 01:59:21 82° W 02:05:45 10° N
Nadezhda 4 Rocket 3.8 01:53:41 10° N 01:59:50 85° E 02:03:08 29° S
H-2A R/B 3.7 01:56:26 10° SSW 02:00:45 30° W 02:05:10 10° NW
Cosmos 468 4.4 01:55:51 10° NNW 02:01:11 68° ENE 02:01:53 60° ESE
In-Cosmos 22 4.3 01:59:33 10° NNW 02:04:48 66° W 02:07:58 25° S
ARGOS 4.4 02:00:21 10° SSW 02:05:21 40° W 02:10:23 10° NNW
NOSS 3-2 (C) 4.4 01:59:07 10° NNW 02:06:25 47° NE 02:08:32 40° E
CZ-2C R/B 3.3 02:06:52 10° N 02:12:19 59° WNW 02:17:48 10° SSW
Cosmos 1048 Rocket 3.9 02:09:34 10° NNW 02:14:56 86° ENE 02:15:16 78° SE
Okean 1 Rocket 4.1 02:19:54 37° N 02:19:54 37° N 02:22:39 10° N
Cosmos 1844 3.7 02:14:30 10° SSW 02:20:13 80° WNW 02:25:55 10° NNE
Resurs 1-3 4.3 02:27:33 50° NNW 02:27:33 50° NNW 02:30:51 10° NNW
ATLAS 2AS CENTAUR R/B 3.2 02:22:43 10° SSW 02:33:18 40° ENE 02:38:11 10° NE
Cosmos 1844 Rocket 3.4 02:25:57 10° SW 02:31:21 51° WNW 02:36:48 10° NNE
Cosmos 1634 Rocket 3.8 02:32:53 80° ENE 02:32:53 80° ENE 02:38:53 10° N
Ariane Rocket 4.4 02:30:49 22° SW 02:33:18 34° W 02:37:55 10° NNW
Cosmos 2285 Rocket 4.2 02:32:12 10° SSW 02:38:27 69° WNW 02:44:47 10° NNE
OBJECT-B 4.1 02:47:22 12° NW 02:47:22 12° NW 02:47:41 10° NW
SPOT 3 Rocket 4.1 02:46:18 56° WNW 02:46:18 56° WNW 02:50:43 10° NNW
CENTAUR R/B 3.1 02:38:09 10° NNW 02:46:24 73° NE 02:47:17 68° E
ATLAS 3B R/B 3.9 02:46:24 10° NNW 02:51:46 30° NE 02:51:46 30° NE
USA 238 DEB 3.8 02:47:47 10° NW 02:55:04 73° WSW 02:55:26 72° SW
USA 238 3.8 02:47:54 10° NW 02:55:10 74° WSW 02:55:31 72° SW
Cosmos 1833 Rocket 4.4 02:51:55 10° N 02:54:32 23° NNE 02:54:32 23° NNE
Cosmos 1092 Rocket 4.5 02:52:30 10° NNW 02:58:28 54° W 02:58:55 53° WSW
Cosmos 2026 Rocket 4.4 02:59:25 10° NNW 03:05:12 62° WNW 03:05:12 62° WNW
Resurs 01 Rocket 4.3 03:27:09 17° NW 03:27:09 17° NW 03:28:29 10° NW
USA 234 4.5 03:29:33 13° NNE 03:34:38 36° NNW 03:40:29 10° W
Cosmos 2082 Rocket 4.4 03:32:16 10° N 03:33:54 18° N 03:33:54 18° N
ATLAS 2AS CENTAUR R/B 4.2 04:14:36 10° WSW 04:21:49 37° NW 04:29:01 10° NNE
Lacrosse 5 4.3 08:09:35 19° ENE 08:09:35 19° ENE 08:11:05 10° NE
USA 267 4.1 07:59:57 10° NE 08:04:18 46° NE 08:04:18 46° NE
ADEOS II 3.9 08:20:01 10° NNE 08:22:11 25° NNE 08:22:11 25° NNE
IDEFIX/ARIANE 42P 3.8 08:32:47 10° NNE 08:36:52 38° ENE 08:36:52 38° ENE
USA 234 4.2 08:33:37 10° E 08:39:41 43° NNE 08:45:47 10° NW
Cosmos 2369 4.5 08:42:34 49° NE 08:42:34 49° NE 08:46:46 10° NNE
ARIANE 5 R/B 3.7 08:39:55 10° NNE 08:43:09 38° NE 08:43:09 38° NE
CZ-2D R/B 4.4 08:46:30 10° NNW 08:47:19 13° NNW 08:47:19 13° NNW
ATLAS 5 CENTAUR R/B 4.4 08:54:03 10° N 08:54:03 10° N 08:54:08 10° N
SJ 16-02 4.5 08:56:45 10° NNE 08:58:56 13° ENE 09:01:07 10° E
H-2A R/B 4.2 08:59:52 10° ESE 09:03:27 26° ENE 09:07:07 10° NNE
Cosmos 2360 4.4 09:06:43 67° N 09:06:43 67° N 09:11:44 10° NNE
Meteor 1-26 Rocket 4.1 09:13:42 73° N 09:13:42 73° N 09:18:36 10° N
ASTEX 1 3.6 09:09:51 10° N 09:14:18 68° NNE 09:14:18 68° NNE
USA 307 4.4 09:17:10 31° NNE 09:17:10 31° NNE 09:19:48 10° NE
BREEZE-M DEB (TANK) 4.5 09:17:25 28° NE 09:17:25 28° NE 09:19:55 10° NE
BREEZE-M DEB (TANK) 4.1 09:13:55 44° SSW 09:16:15 56° SSE 09:20:31 10° ENE
CZ-2C R/B 4.2 09:13:54 10° NE 09:18:26 31° E 09:23:00 10° SSE
Cosmos 1697 Rocket 3.3 09:19:35 43° NNW 09:19:35 43° NNW 09:24:00 10° NNE
USA 308 4.3 09:20:08 32° N 09:20:08 32° N 09:22:53 10° NE
SL-4 R/B 4.4 09:19:51 17° SE 09:20:42 18° SE 09:23:48 10° E
Meteor 1-25 Rocket 4.4 09:16:55 10° NNW 09:21:47 59° NW 09:21:47 59° NW
Cosmos 1980 Rocket 2.0 09:22:31 82° WSW 09:22:43 84° WNW 09:28:25 10° NNE
Cosmos 2322 Rocket 4.3 09:24:14 10° SSE 09:28:39 24° E 09:33:05 10° NE
Landsat 5 4.5 09:24:55 10° SSE 09:29:16 50° ENE 09:33:38 10° N
Cosmos 1782 4.3 09:32:43 29° N 09:32:43 29° N 09:34:48 10° N
Cosmos 2263 Rocket 3.6 09:29:11 10° N 09:34:27 37° ENE 09:39:40 10° SE
SL-16 R/B 3.6 09:31:25 11° SSE 09:36:20 35° ESE 09:41:24 10° NE
Meteor 1-14 Rocket 4.1 09:34:52 10° N 09:40:30 87° W 09:46:02 10° S
CZ-2C R/B 3.6 09:37:28 10° N 09:40:05 42° N 09:40:05 42° N
Spot 4 Rocket 4.1 09:36:42 10° N 09:41:39 54° WNW 09:41:39 54° WNW
NOSS 3-3 (A) 3.8 09:45:00 44° SSW 09:46:59 87° ESE 09:53:21 10° NE
NOSS 3-3 (C) 3.7 09:45:11 44° SSW 09:47:07 86° ESE 09:53:25 10° NE
USA 267 4.3 09:43:22 10° NE 09:49:03 33° NNW 09:51:38 25° WNW
Lacrosse 5 3.0 09:48:47 29° NW 09:49:20 30° NNW 09:53:46 10° NNE
Cosmos 1238 Rocket 3.9 09:43:05 10° N 09:49:42 74° W 09:55:40 10° S
CSL-04 DEB 4.5 09:46:15 10° SSE 09:50:31 84° ENE 09:54:53 10° NNW
Meteor 2-6 Rocket 4.2 09:48:55 21° S 09:52:49 86° E 09:58:37 10° N
BREEZE-M DEB (TANK) 4.4 09:50:54 36° WSW 09:54:22 86° NNW 10:22:12 10° ENE
Cosmos 921 Rocket 2.7 09:55:09 59° SSW 09:55:53 83° WNW 10:00:05 10° NNE
CZ-4C R/B 3.4 09:57:20 49° NNW 09:57:20 49° NNW 10:00:06 10° NNW
Meteor 1-5 Rocket 4.3 09:52:32 10° N 09:57:51 71° E 10:03:15 10° SSE
Cosmos 44 3.3 09:58:36 46° WNW 09:58:56 48° NW 10:03:23 10° NNE
Cosmos 2228 Rocket 3.1 10:01:21 51° WSW 10:02:01 57° W 10:06:23 10° N
ADEOS II 4.2 10:02:17 10° NW 10:03:06 11° NW 10:03:06 11° NW
IRIDIUM 114 4.4 09:59:41 10° N 10:04:56 82° E 10:10:09 10° S
Cosmos 1934 Rocket 4.2 10:04:14 10° NNW 10:09:55 44° W 10:15:37 10° SSW
Meteor 1-4 Rocket 2.3 10:09:31 31° S 10:11:01 86° E 10:14:31 10° N
X-37B 2.1 10:10:31 26° NNW 10:11:21 30° N 10:14:13 10° ENE
GENESIS II 4.2 10:11:43 44° WSW 10:12:48 65° WNW 10:16:50 10° NNE
ADEOS 4.2 10:08:00 10° NNE 10:13:08 56° E 10:18:15 10° S
IRIDIUM 103 4.2 10:08:50 10° N 10:14:04 82° W 10:19:16 10° S
Cosmos 1536 4.3 10:12:05 10° N 10:15:56 39° ENE 10:19:45 10° SSE
IDEFIX/ARIANE 42P 3.7 10:12:55 10° NNW 10:17:06 24° WNW 10:17:41 24° WNW
Cosmos 1484 Rocket 4.0 10:15:55 10° NNE 10:19:45 44° E 10:23:34 10° S
ADEOS Rocket 3.3 10:13:33 10° SSE 10:20:36 83° ENE 10:26:56 10° NNW
MSX 4.5 10:17:06 10° N 10:22:16 34° WNW 10:24:50 24° WSW
USA 234 3.3 10:16:06 10° SSE 10:22:31 60° SW 10:28:58 10° NW
Cosmos 1869 Rocket 3.4 10:18:36 10° NNW 10:22:55 64° W 10:27:10 10° S
ALOS 3.2 10:18:56 10° NNE 10:23:29 49° E 10:27:59 10° S
ARIANE 5 R/B 4.2 10:20:37 10° NNW 10:23:29 15° WNW 10:23:29 15° WNW
Meteor 1-11 Rocket 3.9 10:19:04 10° N 10:24:54 79° E 10:30:32 10° SSE
Cosmos 1153 Rocket 4.5 10:20:12 10° N 10:26:36 84° W 10:32:55 10° S
ERS-2 2.2 10:26:45 10° S 10:30:19 53° WSW 10:33:56 10° NNW
Meteor 1-31 Rocket 3.8 10:26:54 10° NNE 10:30:36 47° E 10:34:19 10° S
IRIDIUM 106 4.4 10:27:15 10° NNW 10:32:20 55° W 10:37:25 10° SSW
FALCON 9 DEB 3.4 10:31:12 22° SSW 10:33:14 64° SE 10:36:38 10° NE
Cosmos 1605 Rocket 4.3 10:27:16 10° NNW 10:33:20 47° W 10:39:24 10° SSW
Cosmos 841 Rocket 4.2 10:29:34 10° S 10:34:37 56° ESE 10:39:45 10° NNE
Meteor 1-27 Rocket 3.8 10:29:13 10° S 10:35:09 84° W 10:41:07 10° N
SJ 16-02 1.3 10:33:35 10° NNW 10:37:54 56° WSW 10:42:11 10° S
H-2A R/B 3.0 10:35:37 10° SSW 10:39:18 27° W 10:43:05 10° NW
PSLV R/B 4.2 10:35:40 10° N 10:39:27 33° WNW 10:42:14 16° SW
Cosmos 1763 Rocket 3.6 10:39:45 10° SSW 10:44:59 59° WNW 10:50:15 10° NNE
Cosmos 1570 Rocket 4.3 10:42:00 10° S 10:47:16 73° ESE 10:52:36 10° NNE
Cosmos 1812 4.0 10:47:58 17° WSW 10:49:28 21° WNW 10:52:28 10° NNW
CZ-2C R/B 3.3 10:52:06 10° N 10:56:34 31° WNW 11:01:03 10° SW
Cosmos 2360 Rocket 2.5 10:51:03 10° SSW 10:56:41 72° ESE 11:02:20 10° NNE
ERBS 3.7 10:54:41 15° W 10:56:43 25° NW 10:59:34 10° NNE
CZ-4B R/B 1.6 10:55:53 10° S 10:58:49 39° W 11:01:51 10° NNW
SL-4 R/B 2.3 10:55:28 11° SW 10:59:53 79° NW 11:04:42 10° NE
SL-8 R/B 3.7 10:56:57 10° WNW 11:01:45 88° NNE 11:06:32 10° ESE
Meteor 2-20 4.5 10:55:42 10° S 11:01:50 90° W 11:07:59 10° N
COSMO-SKYMED 1 3.3 10:58:16 10° SSE 11:02:32 60° ENE 11:06:49 10° N
Cosmos 1666 3.3 11:00:10 10° NNW 11:03:37 33° W 11:07:02 10° SSW
DEBRIS 3.2 11:04:24 10° WNW 11:07:11 60° SSW 11:14:54 10° SE
Cosmos 1980 Rocket 4.0 11:04:48 10° WNW 11:07:35 14° NW 11:10:23 10° NNW
Cosmos 2100 Rocket 4.1 11:02:01 10° NNW 11:08:19 64° W 11:14:34 10° S
METEOR-M 4.1 11:03:20 10° N 11:08:41 72° WNW 11:13:59 10° SSW
Cosmos 990 Rocket 4.3 11:05:08 10° NNW 11:10:03 44° WSW 11:14:57 10° S
Cosmos 1802 Rocket 4.0 11:04:52 10° N 11:11:04 81° W 11:17:19 10° S
Cosmos 2322 Rocket 2.6 11:06:55 10° SW 11:12:20 46° WNW 11:17:49 10° NNE
Gbstr 26 Del rocket 4.4 11:04:29 10° NW 11:12:28 86° NE 11:19:15 10° SE
FENGYUN 3A 3.8 11:07:44 10° N 11:12:59 55° WNW 11:18:14 10° SSW
Cosmos 44 Rocket 3.2 11:10:01 10° SSW 11:14:42 83° WNW 11:19:33 10° NNE
Cosmos 540 Rocket 3.6 11:12:21 10° SSW 11:17:26 59° WNW 11:22:33 10° NNE
Cosmos 2237 4.2 11:12:15 10° SSW 11:17:56 71° WNW 11:23:40 10° NNE
Cosmos 2263 Rocket 3.0 11:13:21 10° NW 11:18:11 30° WSW 11:23:03 10° SSW
SL-16 R/B 3.0 11:15:19 10° WSW 11:20:23 33° WNW 11:25:29 10° N
H-2A R/B 3.9 11:16:54 10° NNE 11:21:04 46° E 11:25:20 10° S
